Worcester, MA

8:43 PM EST on February 19, 2017 (GMT -0500)
Worcester Regional

Weather History for KORH - August, 2013

Change the Weather History Date:

Sunday, August 25, 2013

  Actual Average Record
Temperature  
Mean Temperature 68 °F 68 °F  
Max Temperature 78 °F 76 °F 92 °F (1947)
Min Temperature 57 °F 59 °F 40 °F (1940)
Degree Days  
Heating Degree Days 0 1  
Month to date heating degree days 9 16  
Since 1 June heating degree days 83 113  
Since 1 July heating degree days 16 30  
Cooling Degree Days 3 4  
Month to date cooling degree days 73 124  
Year to date cooling degree days 498 405  
Since 1 June cooling degree days 474 383  
Growing Degree Days 18 (Base 50)    
Moisture  
Dew Point 50 °F    
Average Humidity 59    
Maximum Humidity 86    
Minimum Humidity 31    
Precipitation  
Precipitation 0.00 in 0.11 in 1.37 in (1945)
Month to date precipitation 2.86 3.07  
Year to date precipitation 32.70 30.72  
Snow  
Snow 0.00 in 0.00 in 0.00 in (2002)
Month to date snowfall 0.0 0.0  
Since 1 June snowfall 0.0 0.0  
Since 1 July snowfall 0.0 0.0  
Snow Depth 0.00 in    
Sea Level Pressure  
Sea Level Pressure 30.31 in    
Wind  
Wind Speed 8 mph (West)    
Max Wind Speed 14 mph    
Max Gust Speed 18 mph    
Visibility 10 miles    
Events      
T = Trace of Precipitation, MM = Missing Value Source: NWS Daily Summary

Daily Weather History Graph

Daily Weather History Graph

Search for Another Location

Airport or City:

Trip Planner

Search our weather history database for the weather conditions in past years. The results will help you decide how hot, cold, wet, or windy it might be!

Date:

Astronomy

Aug. 25, 2013 Rise Set
Actual Time 6:05 AM EDT 7:32 PM EDT
Civil Twilight 5:36 AM EDT 8:01 PM EDT
Nautical Twilight 5:00 AM EDT 8:37 PM EDT
Astronomical Twilight 4:23 AM EDT 9:14 PM EDT
Moon 9:54 PM EDT (8/25) 11:11 AM EDT (8/25)
Length of Visible Light 14h 25m
Length of Day
13h 26m
Waning Gibbous, 76% of the Moon is Illuminated
Aug 25
Waning Gibbous
Aug 28
Last Quarter
Sep 5
New
Sep 12
First Quarter
Sep 19
Full

Hourly Weather History & Observations

Time (EDT) Temp. Dew Point Humidity Pressure Visibility Wind Dir Wind Speed Gust Speed Precip Events Conditions
12:54 AM 61.0 °F 50.0 °F 67% 30.35 in 10.0 mi West 9.2 mph - N/A   Clear
1:54 AM 60.1 °F 51.1 °F 72% 30.34 in 10.0 mi West 5.8 mph - N/A   Clear
2:54 AM 59.0 °F 50.0 °F 72% 30.33 in 10.0 mi West 8.1 mph - N/A   Clear
3:54 AM 57.9 °F 51.1 °F 78% 30.33 in 10.0 mi West 9.2 mph - N/A   Clear
4:54 AM 57.9 °F 52.0 °F 81% 30.35 in 10.0 mi WNW 11.5 mph - N/A   Clear
5:54 AM 57.0 °F 53.1 °F 87% 30.37 in 10.0 mi WNW 11.5 mph - N/A   Clear
6:54 AM 59.0 °F 52.0 °F 78% 30.38 in 10.0 mi WNW 9.2 mph - N/A   Clear
7:54 AM 64.0 °F 53.1 °F 67% 30.39 in 10.0 mi NW 6.9 mph - N/A   Clear
8:54 AM 69.1 °F 52.0 °F 54% 30.38 in 10.0 mi NW 4.6 mph - N/A   Clear
9:54 AM 72.0 °F 48.0 °F 43% 30.39 in 10.0 mi NW 10.4 mph - N/A   Clear
10:54 AM 72.0 °F 48.9 °F 44% 30.38 in 10.0 mi WNW 6.9 mph - N/A   Clear
11:54 AM 73.9 °F 45.0 °F 35% 30.35 in 10.0 mi West 5.8 mph - N/A   Clear
12:54 PM 75.0 °F 45.0 °F 34% 30.34 in 10.0 mi SSW 9.2 mph - N/A   Clear
1:54 PM 75.9 °F 45.0 °F 33% 30.33 in 10.0 mi West 6.9 mph - N/A   Clear
2:54 PM 78.1 °F 48.0 °F 35% 30.31 in 10.0 mi WSW 10.4 mph - N/A   Clear
3:54 PM 77.0 °F 45.0 °F 32% 30.30 in 10.0 mi WSW 10.4 mph - N/A   Clear
4:54 PM 77.0 °F 48.9 °F 37% 30.28 in 10.0 mi WSW 8.1 mph - N/A   Clear
5:54 PM 75.0 °F 51.1 °F 43% 30.27 in 10.0 mi SW 9.2 mph - N/A   Clear
6:54 PM 70.0 °F 53.1 °F 55% 30.24 in 10.0 mi SW 5.8 mph - N/A   Clear
7:54 PM 66.0 °F 53.1 °F 63% 30.23 in 10.0 mi SW 5.8 mph - N/A   Clear
8:54 PM 66.0 °F 54.0 °F 65% 30.23 in 10.0 mi SSW 9.2 mph - N/A   Clear
9:54 PM 66.0 °F 54.0 °F 65% 30.22 in 10.0 mi SW 10.4 mph - N/A   Clear
10:54 PM 64.0 °F 54.0 °F 70% 30.22 in 10.0 mi WSW 8.1 mph - N/A   Clear
11:54 PM 64.0 °F 54.0 °F 70% 30.22 in 10.0 mi WSW 8.1 mph - N/A   Clear